Showing default

SHIYAN 20B (SY-20B), 54700

Orbit data source: Space-Track

SHIYAN 20B (SY-20B), 54700 is a payload satellite owned by SAST (CN) in LEO that was launched on Mon, 12 Dec 2022 UTC via a CHANG ZHENG 4C launch vehicle from the Jiuquan Satellite Launch Center, China (JSC). Payload-class satellites include a variety of spacecraft equipped with specific instruments for various scientific and technological missions. These include communications satellites like Starlink; space stations such as the ISS; scientific satellites like the Hubble; Earth observation satellites from companies like Planet Labs, Umbra, and HawkEye 360; GPS; miniature CubeSats for education and research; and military/defense satellites.

Loading next visibility...
Identifier
54700, 2022-169B
Orbit
LEO
Country
Flag of CNCN / PRC
Related business
Manufacturer
SAST
Mission
Operational Defense Technology
Bus & Motor
Unknown
Mass
~500 kg wet, ~500 kg dry
Launch date (UTC)
2022-12-12 (4 years ago)
Launch vehicle
CHANG ZHENG 4C
Launch site
Jiuquan Satellite Launch Center, China (JSC)
Object type
Payload
Rocket body
Debris
Shape & HBR
Box + 2 Pan, 2.5 m
Radar Cross Section
11.063 m², Large (>1 m²)

Expand to show TLE details & history
Last TLE update: 22 hours ago

TLE from 22 hours ago
0 SHIYAN 20B (SY-20B)
1 54700U 22169B   26172.50414081 -.00000037  00000-0  38960-4 0  9998
2 54700  59.9959 226.2463 0010130 210.9586 149.0853 14.29543019183971
Epoch: 2026-06-21T12:05Z
TLE epoch observation values (Epoch: 2026-06-21T12:05:57.765Z)
Latitude
-0.00005°
Longitude
135.05212°
Altitude
801.025 km
Speed
7.45 km/s
True Right ascension
15h 04m 59s
True Declination
0° 00' 00"
Sunlit
Object was in full shadow at epoch
Visualization orbit readout
Latitude
Unknown
Longitude
Unknown
Altitude
Unknown
Speed
Unknown
Apparent Right ascension
Unknown
Apparent Declination
Unknown
Sunlit
N/A
Visualization observer readout
Local Sidereal Time
21:31:50
Azimuth
Unknown
Elevation
Unknown
Doppler factor
Unknown
Orbital elements
Apogee altitude
799.76 km
Perigee altitude
785.232 km
Semi-major axis
7,170.633 km
Eccentricity
0.00101
Inclination
59.9959°
RAAN
226.2463°
Arg. of periapsis
210.9586°
True anomaly
149.14487°
Mean anomaly
149.0853°
Eccentric anomaly
149.11509°
Mean motion
3.57443 °/min
Orbital period
100.72 mins
BSTAR
0.00003896
Loading maneuver chart data...
Computing Atmospheric mass density...
Loading historical data...
Loading historical data...
Loading historical data...
Loading historical data...
Loading historical data...
Loading historical data...
Loading historical data...
Other satellites on launch #169 in the year 2022 (2022-12-12 UTC)

Documentation

Showing up to 5 results
|